Regional Weather Roundup
Issued by NWS

Home | Current Version | Previous Version | Text Only | Print | Product List | Glossary Off
Versions: 1 2 3 4 5 6 7 8 9 10 11 12 13 14 15 16 17 18 19 20 21 22 23 24 25 26 27

000
ASUS45 KBOU 211107
RWRCO

WEATHER ROUNDUP FOR COLORADO
NATIONAL WEATHER SERVICE DENVER/BOULDER CO
500 AM MDT THU SEP 21 2017

NOTE: "FAIR" INDICATES FEW OR NO CLOUDS BELOW 12000 FEET WITH NO
SIGNIFICANT WEATHER AND/OR OBSTRUCTIONS TO VISIBILITY.

COZ001>005-013-030-031-211200-
...NORTHWEST COLORADO...

CITY           SKY/WX    TMP DP  RH WIND       PRES   REMARKS
CRAIG          FAIR      58  31  35 SW10      29.81F
HAYDEN         FAIR      58  29  33 SW9       29.86S
MEEKER         FAIR      60  29  30 S12       29.84S
RABBIT EARS PA FAIR      45  27  49 SW12G26   30.09S
STEAMBOAT SPGS FAIR      42  33  70 CALM      29.87S
WALDEN         FAIR      39  25  56 S9        29.95R
$$

COZ006>008-011-211200-
...WEST CENTRAL VALLEYS...

CITY           SKY/WX    TMP DP  RH WIND       PRES   REMARKS
GRAND JUNCTION FAIR      69  33  26 SE18      29.81R
MONTROSE       FAIR      63  31  30 E7        29.95R
EAGLE          FAIR      54  26  34 VRB6G22   29.91R
RIFLE          FAIR      59  28  30 CALM      29.83R
DELTA          FAIR      60  32  34 NE6       29.91S
NUCLA          FAIR      63  32  31 S13G20    29.97S
$$

COZ017>023-064>068-211200-
...SOUTHWEST COLORADO...

CITY           SKY/WX    TMP DP  RH WIND       PRES   REMARKS
DURANGO        FAIR      42  31  64 NE6       30.08R
CORTEZ         FAIR      48  35  60 E7        30.00S
PAGOSA SPRINGS FAIR      44  28  53 NE3       30.14S
TELLURIDE      FAIR      53  28  37 S8G23     30.16S
WOLF CREEK PAS FAIR      34  27  75 S25G40    30.33R WCI  21
$$

COZ009-010-012-014-032>034-037-058>063-211200-
...CENTRAL COLORADO...

CITY           SKY/WX    TMP DP  RH WIND       PRES   REMARKS
ASPEN          FAIR      47  27  45 VRB7      29.99R
BUENA VISTA    FAIR      51  22  31 CALM      30.03S
COPPER MTN     FAIR      45  14  29 S28G37    30.21S
BERTHOUD PASS  FAIR      37  32  81 W31G48    30.19F
COTTONWOOD PAS FAIR      55  21  26 NW5       30.12F
GUNNISON       FAIR      32  28  85 CALM      30.08S
KREMMLING      FAIR      41  28  60 N3        29.96R
LEADVILLE      FAIR      35  19  52 E5        30.11F WCI  31
MONARCH PASS   FAIR      37  21  52 SW33      30.36F
SALIDA         FAIR      57  24  27 SW8       30.10S
SUNLIGHT       FAIR      39  25  56 SW15G26   30.15S
WILKERSON PASS FAIR      43  19  39 SW25G40   30.17F
$$

COZ069>075-211200-
...SAN LUIS VALLEY/SANGRE DE CRISTO MOUNTAINS...

CITY           SKY/WX    TMP DP  RH WIND       PRES   REMARKS
ALAMOSA        FAIR      47  30  51 SW10      30.09R
DEL NORTE      FAIR      43  26  50 NW6       30.11S
LA VETA PASS   FAIR      46  27  46 S29G53    30.23F
SAGUACHE       FAIR      36  28  75 N6        30.11R
$$

COZ035-036-038>040-211200-
...NORTHERN COLORADO FRONT RANGE...

CITY           SKY/WX    TMP DP  RH WIND       PRES   REMARKS
DENVER INTL AP FAIR      64  25  22 S18       29.78F
DMNS CITY PARK   N/A     63  28  26 SE14      29.78S
AURORA         CLEAR     59  26  28 S13       29.82S
FRONT RANGE AP FAIR      66  27  22 S15G22    29.80F
ERIE MUNI ARPT FAIR      41  35  79 CALM      29.84S
BOULDER MUN AP FAIR      50  37  62 CALM      29.78F
CENTENNIAL     FAIR      62  26  25 S15       29.82F
BROOMFIELD     FAIR      50  32  50 CALM      29.80S
FORT COLLINS   FAIR      44  36  73 N8        29.79S
LONGMONT       FAIR      42  35  74 CALM      29.80F
$$

COZ041-046-047-076>085-087-088-211200-
...PIKES PEAK/PALMER DIVIDE AND SOUTHERN FOOTHILLS...

CITY           SKY/WX    TMP DP  RH WIND       PRES   REMARKS
COLO. SPRINGS  FAIR      49  35  58 S5        29.91S
A. F. ACADEMY  FAIR      41  31  66 N10       29.90F
SCHRIEVER AFB  FAIR      48  34  58 MISG      29.90F
CHEYENNE MTN   FAIR      64  23  20 SE17G29   29.87F
ELLICOTT         N/A    N/A N/A N/A S8        29.88F
FALCON         FAIR      56  28  34 CALM      29.94S
FORT CARSON    FAIR      46  34  62 N5        29.87F
LIMON          FAIR      35  32  88 N5        29.85F WCI  31
MONUMENT HILL  FAIR      48  27  43 S8        29.94F
CANON CITY     CLEAR     48  34  57 W6        29.87S
WALSENBURG     FAIR      64  28  25 S13       29.94R
TRINIDAD       FAIR      59  33  37 W14       29.93S
$$

COZ042>045-048>051-090-091-211200-
...NORTHEAST COLORADO...

CITY           SKY/WX    TMP DP  RH WIND       PRES   REMARKS
GREELEY ARPT   FAIR      41  35  79 NW5       29.78S
AKRON          FAIR      54  37  52 S10       29.77F
BURLINGTON     FAIR      54  41  61 S13       29.79F
WRAY           FAIR      50  39  66 E9        29.77F
YUMA           FAIR      39  36  87 CALM      29.77F
STERLING       FAIR      45  36  70 NW3       29.75S
HOLYOKE        NOT AVBL
FORT MORGAN    FAIR      44  33  66 NE5       29.77S
$$

COZ086-089-092>099-211200-
...SOUTHEAST COLORADO...

CITY           SKY/WX    TMP DP  RH WIND       PRES   REMARKS
PUEBLO         FAIR      44  33  65 CALM      29.84F
LA JUNTA       FAIR      49  38  65 NW3       29.82S
LAMAR          FAIR      44  36  73 CALM      29.78F
SPRINGFIELD      N/A     52  44  74 S13       29.86F
$$




USA.gov is the U.S. government's official web portal to all federal, state and local government web resources and services.